GFSNIL_prec_kuchsnow_330.txt.gz
Snowfall_Accumulation
0.0 0.0 0.0 0.0 0.0 0.0 0.0 0.0 0.0 0.0 0.0 0.0 0.0 0.0 0.0 0.0 0.0 0.0 0.0 0.0 0.0 0.0
0.0 0.0 0.0 0.0 0.0 0.0 0.0 0.0 0.0 0.0 0.0 0.0 0.0 0.0 0.0 0.0 0.0 0.0 0.0 0.0 0.0 0.0
0.0 0.0 0.0 0.0 0.0 0.0 0.0 0.0 0.0 0.0 0.0 0.0 0.0 0.0 0.0 0.0 0.0 0.0 0.0 0.0 0.0 0.0
0.0 0.0 0.0 0.0 0.0 0.0 0.0 0.0 0.0 0.0 0.0 0.0 0.0 0.0 0.0 0.0 0.0 0.0 0.0 0.0 0.0 0.0
0.0 0.0 0.0 0.0 0.0 0.0 0.0 0.0 0.0 0.0 0.0 0.0 0.0 0.0 0.0 0.0 0.0 0.0 0.0 0.0 0.0 0.0
0.0 0.0 0.0 0.0 0.0 0.0 0.0 0.0 0.0 0.0 0.0 0.0 0.0 0.0 0.0 0.0 0.0 0.0 0.0 0.0 0.0 0.0
0.0 0.0 0.0 0.0 0.0 0.0 0.0 0.0 0.0 0.0 0.0 0.0 0.0 0.0 0.0 0.0 0.0 0.0 0.0 0.0 0.0 0.0
0.0 0.0 0.0 0.0 0.0 0.0 0.0 0.0 0.0 0.0 0.0 0.0 0.0 0.0 0.0 0.2 0.4 0.4 0.4 0.2 0.3 0.1
0.0 0.0 0.0 0.0 0.0 0.0 0.0 0.0 0.0 0.0 0.0 0.0 0.0 0.0 0.1 0.4 1.1 0.7 0.5 0.5 0.5 1.2
0.0 0.0 0.0 0.0 0.0 0.0 0.0 0.0 0.0 0.0 0.0 0.0 0.0 0.0 0.2 0.6 1.5 1.2 2.9 3.4 3.7 2.3
0.0 0.0 0.0 0.0 0.0 0.0 0.0 0.0 0.0 0.0 0.2 0.0 0.0 0.1 0.5 2.1 4.7 4.1 4.1 3.5 2.7 2.0
0.0 0.0 0.0 0.0 0.0 0.0 0.0 1.1 3.5 2.7 3.6 4.2 4.1 0.7 0.9 3.0 4.6 3.0 1.8 0.5 0.0 0.0
2.6 2.3 2.7 2.4 4.9 2.5 1.7 4.9 3.8 4.7 4.2 1.9 2.4 0.6 0.9 1.3 2.3 2.6 2.2 0.9 0.0 0.0
3.5 3.0 2.2 3.9 3.6 2.3 2.6 3.4 3.6 3.7 2.5 1.5 0.4 0.2 0.1 0.3 1.8 1.8 1.5 1.0 0.6 0.0

GFSNIL_prec_kuchsnow_333.txt.gz
Snowfall_Accumulation
0.0 0.0 0.0 0.0 0.0 0.0 0.0 0.0 0.0 0.0 0.0 0.0 0.0 0.0 0.0 0.0 0.0 0.0 0.0 0.0 0.0 0.0
0.0 0.0 0.0 0.0 0.0 0.0 0.0 0.0 0.0 0.0 0.0 0.0 0.0 0.0 0.0 0.0 0.0 0.0 0.0 0.0 0.0 0.0
0.0 0.0 0.0 0.0 0.0 0.0 0.0 0.0 0.0 0.0 0.0 0.0 0.0 0.0 0.0 0.0 0.0 0.0 0.0 0.0 0.0 0.0
0.0 0.0 0.0 0.0 0.0 0.0 0.0 0.0 0.0 0.0 0.0 0.0 0.0 0.0 0.0 0.0 0.0 0.0 0.0 0.0 0.0 0.0
0.0 0.0 0.0 0.0 0.0 0.0 0.0 0.0 0.0 0.0 0.0 0.0 0.0 0.0 0.0 0.0 0.0 0.0 0.0 0.0 0.0 0.0
0.0 0.0 0.0 0.0 0.0 0.0 0.0 0.0 0.0 0.0 0.0 0.0 0.0 0.0 0.0 0.0 0.0 0.0 0.0 0.0 0.0 0.0
0.0 0.0 0.0 0.0 0.0 0.0 0.0 0.0 0.0 0.0 0.0 0.0 0.0 0.0 0.0 0.0 0.0 0.0 0.0 0.0 0.0 0.0
0.0 0.0 0.0 0.0 0.0 0.0 0.0 0.0 0.0 0.0 0.0 0.0 0.0 0.0 0.0 0.2 0.4 0.4 0.4 0.2 0.3 0.1
0.0 0.0 0.0 0.0 0.0 0.0 0.0 0.0 0.0 0.0 0.0 0.0 0.0 0.0 0.1 0.4 1.1 0.7 0.5 0.5 0.5 1.2
0.0 0.0 0.0 0.0 0.0 0.0 0.0 0.0 0.0 0.0 0.0 0.0 0.0 0.0 0.2 0.6 1.5 1.2 2.9 3.4 3.7 2.3
2.6 2.2 0.0 0.0 0.0 0.0 0.0 0.0 0.0 0.0 0.2 0.0 0.0 0.1 0.5 2.1 4.7 4.1 4.1 3.5 2.7 2.0
3.7 2.6 1.8 0.0 0.0 0.0 0.0 1.1 3.5 2.7 3.6 4.2 4.1 0.7 0.9 3.0 4.6 3.0 1.8 0.5 0.0 0.0
5.6 5.8 5.0 2.4 4.9 2.5 1.7 4.9 3.8 4.7 4.2 1.9 2.4 0.6 0.9 1.3 2.3 2.6 2.2 0.9 0.0 0.0
5.5 6.4 5.5 6.4 3.6 2.3 2.6 3.4 3.6 3.7 2.5 1.5 0.4 0.2 0.1 0.3 1.8 1.8 1.5 1.0 0.6 0.0

GFSNIL_prec_kuchsnow_336.txt.gz
Snowfall_Accumulation
0.0 0.0 0.0 0.0 0.0 0.0 0.0 0.0 0.0 0.0 0.0 0.0 0.0 0.0 0.0 0.0 0.0 0.0 0.0 0.0 0.0 0.0
0.0 0.0 0.0 0.0 0.0 0.0 0.0 0.0 0.0 0.0 0.0 0.0 0.0 0.0 0.0 0.0 0.0 0.0 0.0 0.0 0.0 0.0
0.0 0.0 0.0 0.0 0.0 0.0 0.0 0.0 0.0 0.0 0.0 0.0 0.0 0.0 0.0 0.0 0.0 0.0 0.0 0.0 0.0 0.0
0.0 0.0 0.0 0.0 0.0 0.0 0.0 0.0 0.0 0.0 0.0 0.0 0.0 0.0 0.0 0.0 0.0 0.0 0.0 0.0 0.0 0.0
0.0 0.0 0.0 0.0 0.0 0.0 0.0 0.0 0.0 0.0 0.0 0.0 0.0 0.0 0.0 0.0 0.0 0.0 0.0 0.0 0.0 0.0
0.0 0.0 0.0 0.0 0.0 0.0 0.0 0.0 0.0 0.0 0.0 0.0 0.0 0.0 0.0 0.0 0.0 0.0 0.0 0.0 0.0 0.0
0.0 0.0 0.0 0.0 0.0 0.0 0.0 0.0 0.0 0.0 0.0 0.0 0.0 0.0 0.0 0.0 0.0 0.0 0.0 0.0 0.0 0.0
0.0 0.0 0.0 0.0 0.0 0.0 0.0 0.0 0.0 0.0 0.0 0.0 0.0 0.0 0.0 0.2 0.4 0.4 0.4 0.2 0.3 0.1
0.0 1.0 0.0 0.0 0.0 0.0 0.0 0.0 0.0 0.0 0.0 0.0 0.0 0.0 0.1 0.4 1.1 0.7 0.5 0.5 0.5 1.2
1.2 1.0 0.0 0.0 0.0 0.0 0.0 0.0 0.0 0.0 0.0 0.0 0.0 0.0 0.2 0.6 1.5 1.2 2.9 3.4 3.7 2.3
4.5 4.2 0.0 0.0 0.0 0.0 0.0 0.0 0.0 0.0 0.2 0.0 0.0 0.1 0.5 2.1 4.7 4.1 4.1 3.5 2.7 2.0
5.7 5.3 4.0 0.0 0.0 0.0 0.0 1.1 3.5 2.7 3.6 4.2 4.1 0.7 0.9 3.0 4.6 3.0 1.8 0.5 0.0 0.0
8.3 8.6 8.7 2.4 4.9 2.5 1.7 4.9 3.8 4.7 4.2 1.9 2.4 0.6 0.9 1.3 2.3 2.6 2.2 0.9 0.0 0.0
7.8 9.1 9.1 10.5 6.2 2.3 2.6 3.4 3.6 3.7 2.5 1.5 0.4 0.2 0.1 0.3 1.8 1.8 1.5 1.0 0.6 0.0

GFSNIL_prec_kuchsnow_342.txt.gz
Snowfall_Accumulation
0.0 0.0 0.0 0.0 0.0 0.0 0.0 0.0 0.0 0.0 0.0 0.0 0.0 0.0 0.0 0.0 0.0 0.0 0.0 0.0 0.0 0.0
0.0 0.0 0.0 0.0 0.0 0.0 0.0 0.0 0.0 0.0 0.0 0.0 0.0 0.0 0.0 0.0 0.0 0.0 0.0 0.0 0.0 0.0
0.0 0.0 0.0 0.0 0.0 0.0 0.0 0.0 0.0 0.0 0.0 0.0 0.0 0.0 0.0 0.0 0.0 0.0 0.0 0.0 0.0 0.0
0.0 0.0 0.0 0.0 0.0 0.0 0.0 0.0 0.0 0.0 0.0 0.0 0.0 0.0 0.0 0.0 0.0 0.0 0.0 0.0 0.0 0.0
0.1 0.0 0.0 0.0 0.0 0.0 0.0 0.0 0.0 0.0 0.0 0.0 0.0 0.0 0.0 0.0 0.0 0.0 0.0 0.0 0.0 0.0
0.3 0.0 0.0 0.0 0.0 0.0 0.0 0.0 0.0 0.0 0.0 0.0 0.0 0.0 0.0 0.0 0.0 0.0 0.0 0.0 0.0 0.0
0.9 0.3 0.0 0.0 0.0 0.0 0.0 0.0 0.0 0.0 0.0 0.0 0.0 0.0 0.0 0.0 0.0 0.0 0.0 0.0 0.0 0.0
1.3 0.7 0.1 0.0 0.0 0.0 0.0 0.0 0.0 0.0 0.0 0.0 0.0 0.0 0.0 0.2 0.4 0.4 0.4 0.2 0.3 0.1
1.1 2.3 0.4 0.1 0.0 0.0 0.0 0.0 0.0 0.0 0.0 0.0 0.0 0.0 0.1 0.4 1.1 0.7 0.5 0.5 0.5 1.2
2.5 2.5 0.7 0.2 0.1 0.0 0.0 0.0 0.0 0.0 0.0 0.0 0.0 0.0 0.2 0.6 1.5 1.2 2.9 3.4 3.7 2.3
5.9 5.9 0.9 0.3 0.1 0.1 0.0 0.0 0.0 0.0 0.2 0.0 0.0 0.1 0.5 2.1 4.7 4.1 4.1 3.5 2.7 2.0
7.3 7.0 5.1 0.6 0.2 0.1 0.0 1.1 3.5 2.7 3.6 4.2 4.1 0.7 0.9 3.0 4.6 3.0 1.8 0.5 0.0 0.0
10.1 10.6 10.4 3.1 5.5 3.4 1.9 4.9 3.8 4.7 4.2 1.9 2.4 0.6 0.9 1.3 2.3 2.6 2.2 0.9 0.0 0.0
9.5 11.3 11.0 11.5 6.7 2.9 3.0 3.4 3.6 3.7 2.5 1.5 0.4 0.2 0.1 0.3 1.8 1.8 1.5 1.0 0.6 0.0

GFSNIL_prec_kuchsnow_345.txt.gz
Snowfall_Accumulation
0.0 0.0 0.0 0.0 0.0 0.0 0.0 0.0 0.0 0.0 0.0 0.0 0.0 0.0 0.0 0.0 0.0 0.0 0.0 0.0 0.0 0.0
0.0 0.0 0.0 0.0 0.0 0.0 0.0 0.0 0.0 0.0 0.0 0.0 0.0 0.0 0.0 0.0 0.0 0.0 0.0 0.0 0.0 0.0
0.0 0.0 0.0 0.0 0.0 0.0 0.0 0.0 0.0 0.0 0.0 0.0 0.0 0.0 0.0 0.0 0.0 0.0 0.0 0.0 0.0 0.0
0.0 0.0 0.0 0.0 0.0 0.0 0.0 0.0 0.0 0.0 0.0 0.0 0.0 0.0 0.0 0.0 0.0 0.0 0.0 0.0 0.0 0.0
0.1 0.0 0.0 0.0 0.0 0.0 0.0 0.0 0.0 0.0 0.0 0.0 0.0 0.0 0.0 0.0 0.0 0.0 0.0 0.0 0.0 0.0
0.3 0.0 0.0 0.0 0.0 0.0 0.0 0.0 0.0 0.0 0.0 0.0 0.0 0.0 0.0 0.0 0.0 0.0 0.0 0.0 0.0 0.0
0.9 0.3 0.0 0.0 0.0 0.0 0.0 0.0 0.0 0.0 0.0 0.0 0.0 0.0 0.0 0.0 0.0 0.0 0.0 0.0 0.0 0.0
1.3 0.7 0.1 0.0 0.0 0.0 0.0 0.0 0.0 0.0 0.0 0.0 0.0 0.0 0.0 0.2 0.4 0.4 0.4 0.2 0.3 0.1
1.1 2.3 0.4 0.1 0.0 0.0 0.0 0.2 0.0 0.0 0.0 0.0 0.0 0.0 0.1 0.4 1.1 0.7 0.5 0.5 0.5 1.2
2.5 2.5 0.7 0.9 0.5 0.2 0.4 0.3 0.0 0.0 0.0 0.0 0.0 0.0 0.2 0.6 1.5 1.2 2.9 3.4 3.7 2.3
5.9 5.9 0.9 1.3 0.8 0.5 0.3 0.6 0.0 0.0 0.2 0.0 0.0 0.1 0.5 2.1 4.7 4.1 4.1 3.5 2.7 2.0
7.3 7.0 5.1 1.7 1.3 0.9 0.4 1.6 3.9 2.7 3.6 4.2 4.1 0.7 0.9 3.0 4.6 3.0 1.8 0.5 0.0 0.0
10.1 11.0 11.1 4.3 6.9 4.6 2.6 5.1 4.2 4.7 4.2 1.9 2.4 0.6 0.9 1.3 2.3 2.6 2.2 0.9 0.0 0.0
9.5 11.8 11.6 12.6 8.1 4.2 4.2 3.8 4.0 3.7 2.5 1.5 0.4 0.2 0.1 0.3 1.8 1.8 1.5 1.0 0.6 0.0

GFSNIL_prec_kuchsnow_348.txt.gz
Snowfall_Accumulation
0.0 0.0 0.0 0.0 0.0 0.0 0.0 0.0 0.0 0.0 0.0 0.0 0.0 0.0 0.0 0.0 0.0 0.0 0.0 0.0 0.0 0.0
0.0 0.0 0.0 0.0 0.0 0.0 0.0 0.0 0.0 0.0 0.0 0.0 0.0 0.0 0.0 0.0 0.0 0.0 0.0 0.0 0.0 0.0
0.0 0.0 0.0 0.0 0.0 0.0 0.0 0.0 0.0 0.0 0.0 0.0 0.0 0.0 0.0 0.0 0.0 0.0 0.0 0.0 0.0 0.0
0.0 0.0 0.0 0.0 0.0 0.0 0.0 0.0 0.0 0.0 0.0 0.0 0.0 0.0 0.0 0.0 0.0 0.0 0.0 0.0 0.0 0.0
0.1 0.0 0.0 0.0 0.0 0.0 0.0 0.0 0.0 0.0 0.0 0.0 0.0 0.0 0.0 0.0 0.0 0.0 0.0 0.0 0.0 0.0
0.3 0.0 0.0 0.0 0.0 0.0 0.0 0.0 0.0 0.0 0.0 0.0 0.0 0.0 0.0 0.0 0.0 0.0 0.0 0.0 0.0 0.0
0.9 0.3 0.0 0.0 0.0 0.0 0.0 0.0 0.0 0.0 0.0 0.0 0.0 0.0 0.0 0.0 0.0 0.0 0.0 0.0 0.0 0.0
1.3 0.7 0.1 0.0 0.0 0.0 0.0 0.0 0.0 0.0 0.0 0.0 0.0 0.0 0.0 0.2 0.4 0.4 0.4 0.2 0.3 0.1
1.1 2.3 0.4 0.1 0.0 0.0 0.0 0.2 0.0 0.0 0.0 0.0 0.0 0.0 0.1 0.4 1.1 0.7 0.5 0.5 0.5 1.2
2.5 2.5 0.7 0.9 0.5 0.2 0.4 0.3 0.0 0.0 0.0 0.0 0.0 0.0 0.2 0.6 1.5 1.2 2.9 3.4 3.7 2.3
5.9 5.9 0.9 1.3 0.8 0.5 0.3 0.6 0.0 0.0 0.2 0.0 0.0 0.1 0.5 2.1 4.7 4.1 4.1 3.5 2.7 2.0
7.3 7.0 5.1 1.7 1.3 0.9 0.4 1.6 4.1 2.7 3.6 4.2 4.1 0.7 0.9 3.0 4.6 3.0 1.8 0.5 0.0 0.0
10.1 11.0 11.1 4.3 6.9 4.6 3.0 5.5 4.6 4.7 4.2 2.4 2.7 0.6 0.9 1.3 2.3 2.6 2.2 0.9 0.0 0.0
9.5 11.8 11.6 12.6 8.1 4.2 4.6 4.2 4.3 4.3 2.5 2.0 0.7 0.2 0.1 0.3 1.8 1.8 1.5 1.0 0.6 0.0

GFSNIL_prec_kuchsnow_351.txt.gz
Snowfall_Accumulation
0.0 0.0 0.0 0.0 0.0 0.0 0.0 0.0 0.0 0.0 0.0 0.0 0.0 0.0 0.0 0.0 0.0 0.0 0.0 0.0 0.0 0.0
0.0 0.0 0.0 0.0 0.0 0.0 0.0 0.0 0.0 0.0 0.0 0.0 0.0 0.0 0.0 0.0 0.0 0.0 0.0 0.0 0.0 0.0
0.0 0.0 0.0 0.0 0.0 0.0 0.0 0.0 0.0 0.0 0.0 0.0 0.0 0.0 0.0 0.0 0.0 0.0 0.0 0.0 0.0 0.0
0.0 0.0 0.0 0.0 0.0 0.0 0.0 0.0 0.0 0.0 0.0 0.0 0.0 0.0 0.0 0.0 0.0 0.0 0.0 0.0 0.0 0.0
0.1 0.0 0.0 0.0 0.0 0.0 0.0 0.0 0.0 0.0 0.0 0.0 0.0 0.0 0.0 0.0 0.0 0.0 0.0 0.0 0.0 0.0
0.3 0.0 0.0 0.0 0.0 0.0 0.0 0.0 0.0 0.0 0.0 0.0 0.0 0.0 0.0 0.0 0.0 0.0 0.0 0.0 0.0 0.0
0.9 0.3 0.0 0.0 0.0 0.0 0.0 0.0 0.0 0.0 0.0 0.0 0.0 0.0 0.0 0.0 0.0 0.0 0.0 0.0 0.0 0.0
1.3 0.7 0.1 0.0 0.0 0.0 0.0 0.0 0.0 0.0 0.0 0.0 0.0 0.0 0.0 0.2 0.4 0.4 0.4 0.2 0.3 0.1
1.1 2.3 0.4 0.1 0.0 0.0 0.0 0.2 0.0 0.0 0.0 0.0 0.0 0.0 0.1 0.4 1.1 0.7 0.5 0.5 0.5 1.2
2.5 2.5 0.7 0.9 0.5 0.2 0.4 0.3 0.0 0.0 0.0 0.0 0.0 0.0 0.2 0.6 1.5 1.2 2.9 3.4 3.7 2.3
5.9 5.9 0.9 1.3 0.8 0.5 0.3 0.6 0.0 0.0 0.2 0.0 0.0 0.1 0.5 2.1 4.7 4.1 4.1 3.5 2.7 2.0
7.3 7.0 5.1 1.7 1.3 0.9 0.4 1.6 4.1 2.7 3.6 4.2 4.1 0.7 0.9 3.0 4.6 3.0 1.8 0.5 0.0 0.0
10.1 11.0 11.1 4.3 6.9 4.6 3.0 5.5 4.6 4.7 4.2 2.4 2.7 0.6 0.9 1.3 2.3 2.6 2.2 0.9 0.0 0.0
9.5 11.8 11.6 12.6 8.1 4.2 4.6 4.3 4.3 4.3 2.5 2.0 0.7 0.2 0.1 0.3 1.8 1.8 1.5 1.0 0.6 0.0

GFSNIL_prec_kuchsnow_354.txt.gz
Snowfall_Accumulation
0.0 0.0 0.0 0.0 0.0 0.0 0.0 0.0 0.0 0.0 0.0 0.0 0.0 0.0 0.0 0.0 0.0 0.0 0.0 0.0 0.0 0.0
0.0 0.0 0.0 0.0 0.0 0.0 0.0 0.0 0.0 0.0 0.0 0.0 0.0 0.0 0.0 0.0 0.0 0.0 0.0 0.0 0.0 0.0
0.0 0.0 0.0 0.0 0.0 0.0 0.0 0.0 0.0 0.0 0.0 0.0 0.0 0.0 0.0 0.0 0.0 0.0 0.0 0.0 0.0 0.0
0.0 0.0 0.0 0.0 0.0 0.0 0.0 0.0 0.0 0.0 0.0 0.0 0.0 0.0 0.0 0.0 0.0 0.0 0.0 0.0 0.0 0.0
0.1 0.0 0.0 0.0 0.0 0.0 0.0 0.0 0.0 0.0 0.0 0.0 0.0 0.0 0.0 0.0 0.0 0.0 0.0 0.0 0.0 0.0
0.3 0.0 0.0 0.0 0.0 0.0 0.0 0.0 0.0 0.0 0.0 0.0 0.0 0.0 0.0 0.0 0.0 0.0 0.0 0.0 0.0 0.0
0.9 0.3 0.0 0.0 0.0 0.0 0.0 0.0 0.0 0.0 0.0 0.0 0.0 0.0 0.0 0.0 0.0 0.0 0.0 0.0 0.0 0.0
1.3 0.7 0.1 0.0 0.0 0.0 0.0 0.0 0.0 0.0 0.0 0.0 0.0 0.0 0.0 0.2 0.4 0.4 0.4 0.2 0.3 0.1
1.1 2.3 0.4 0.1 0.0 0.0 0.0 0.2 0.0 0.0 0.0 0.0 0.0 0.0 0.1 0.4 1.1 0.7 0.5 0.5 0.5 1.2
2.5 2.5 0.7 0.9 0.5 0.2 0.4 0.3 0.0 0.0 0.0 0.0 0.0 0.0 0.2 0.6 1.5 1.2 2.9 3.4 3.7 2.3
5.9 5.9 0.9 1.3 0.8 0.5 0.3 0.6 0.0 0.0 0.2 0.0 0.0 0.1 0.5 2.1 4.7 4.1 4.1 3.5 2.7 2.0
7.3 7.0 5.1 1.7 1.3 0.9 0.4 1.6 4.1 2.7 3.6 4.2 4.1 0.7 0.9 3.0 4.6 3.0 1.8 0.5 0.0 0.0
10.1 11.0 11.1 4.3 6.9 4.6 3.0 5.5 4.6 4.7 4.2 2.4 2.7 0.6 0.9 1.3 2.3 2.7 2.2 0.9 0.0 0.0
9.5 11.8 11.6 12.6 8.1 4.2 4.6 4.3 4.3 4.3 2.5 2.0 0.7 0.2 0.1 0.3 1.8 1.9 1.7 1.1 0.6 0.0